Lake Charles Regional, LA

6:04 AM CST on January 16, 2018 (GMT -0600)
Lake Charles Regional

Weather History for KLCH - March, 2013

Change the Weather History Date:

Wednesday, March 6, 2013

  Actual Average Record
Temperature  
Mean Temperature 54 °F 59 °F  
Max Temperature 68 °F 69 °F 84 °F (1911)
Min Temperature 39 °F 49 °F 25 °F (1989)
Degree Days  
Heating Degree Days 11 7  
Month to date heating degree days 73 44  
Since 1 July heating degree days 1042 1326  
Cooling Degree Days 0 1  
Month to date cooling degree days 0 6  
Year to date cooling degree days 30 29  
Growing Degree Days 4 (Base 50)    
Moisture  
Dew Point 28 °F    
Average Humidity 52    
Maximum Humidity 89    
Minimum Humidity 14    
Precipitation  
Precipitation 0.00 in 0.13 in 3.10 in (1933)
Month to date precipitation T 0.74  
Year to date precipitation 16.59 9.43  
Snow  
Snow 0.00 in 0.00 in 0.00 in ()
Month to date snowfall 0.0 0.0  
Since 1 July snowfall 0.0 0.1  
Snow Depth 0.00 in    
Sea Level Pressure  
Sea Level Pressure 30.33 in    
Wind  
Wind Speed 6 mph (North)    
Max Wind Speed 16 mph    
Max Gust Speed 21 mph    
Visibility 10 miles    
Events      
T = Trace of Precipitation, MM = Missing Value Source: NWS Daily Summary

Daily Weather History Graph

Daily Weather History Graph

Search for Another Location

Airport or City:

Trip Planner

Search our weather history database for the weather conditions in past years. The results will help you decide how hot, cold, wet, or windy it might be!

Date:

Astronomy

Mar. 06, 2013 Rise Set
Actual Time 6:32 AM CST 6:15 PM CST
Civil Twilight 6:09 AM CST 6:39 PM CST
Nautical Twilight 5:41 AM CST 7:07 PM CST
Astronomical Twilight 5:13 AM CST 7:35 PM CST
Moon 2:24 AM CST (3/6) 1:15 PM CST (3/6)
Length of Visible Light 12h 30m
Length of Day
11h 42m
Waning Crescent, 29% of the Moon is Illuminated
Mar 6
Waning Crescent
Mar 11
New
Mar 19
First Quarter
Mar 27
Full
Apr 2
Last Quarter

Hourly Weather History & Observations

Time (CST) Temp. Windchill Dew Point Humidity Pressure Visibility Wind Dir Wind Speed Gust Speed Precip Events Conditions
12:53 AM 50.0 °F - 27.0 °F 41% 30.31 in 10.0 mi North 12.7 mph - N/A   Clear
1:53 AM 46.9 °F - 27.0 °F 46% 30.32 in 10.0 mi North 6.9 mph - N/A   Clear
2:53 AM 44.1 °F 41.5 °F 27.0 °F 51% 30.33 in 10.0 mi North 4.6 mph - N/A   Clear
3:53 AM 42.1 °F 39.2 °F 27.0 °F 55% 30.33 in 10.0 mi North 4.6 mph - N/A   Clear
4:53 AM 42.1 °F 38.4 °F 27.0 °F 55% 30.35 in 10.0 mi North 5.8 mph - N/A   Clear
5:53 AM 39.9 °F 36.7 °F 27.0 °F 60% 30.37 in 10.0 mi North 4.6 mph - N/A   Clear
6:53 AM 39.9 °F 35.1 °F 26.1 °F 58% 30.39 in 10.0 mi North 6.9 mph - N/A   Clear
7:53 AM 46.0 °F 41.9 °F 27.0 °F 47% 30.41 in 10.0 mi NNE 8.1 mph - N/A   Clear
8:53 AM 50.0 °F - 24.1 °F 36% 30.42 in 10.0 mi NE 15.0 mph - N/A   Clear
9:53 AM 53.1 °F - 24.1 °F 32% 30.41 in 10.0 mi NE 11.5 mph - N/A   Clear
10:53 AM 55.9 °F - 24.1 °F 29% 30.41 in 10.0 mi North 6.9 mph - N/A   Clear
11:53 AM 59.0 °F - 21.9 °F 24% 30.39 in 10.0 mi NNE 9.2 mph - N/A   Clear
12:53 PM 62.1 °F - 21.9 °F 21% 30.35 in 10.0 mi NNE 11.5 mph - N/A   Clear
1:53 PM 64.9 °F - 21.9 °F 19% 30.31 in 10.0 mi North 5.8 mph - N/A   Clear
2:53 PM 66.9 °F - 19.9 °F 17% 30.28 in 10.0 mi North 10.4 mph - N/A   Clear
3:53 PM 68.0 °F - 17.1 °F 14% 30.27 in 10.0 mi NNW 8.1 mph - N/A   Clear
4:53 PM 66.0 °F - 19.9 °F 17% 30.27 in 10.0 mi North 6.9 mph - N/A   Clear
5:53 PM 59.0 °F - 26.1 °F 28% 30.27 in 10.0 mi North 3.5 mph - N/A   Clear
6:53 PM 50.0 °F - 35.1 °F 57% 30.29 in 10.0 mi Calm Calm - N/A   Clear
7:53 PM 48.9 °F - 35.1 °F 59% 30.29 in 10.0 mi SSW 6.9 mph - N/A   Clear
8:53 PM 46.9 °F - 42.1 °F 83% 30.30 in 10.0 mi Calm Calm - N/A   Clear
9:53 PM 44.1 °F 42.5 °F 39.9 °F 85% 30.28 in 10.0 mi NE 3.5 mph - N/A   Clear
10:53 PM 44.1 °F - 41.0 °F 89% 30.28 in 10.0 mi Calm Calm - N/A   Clear
11:53 PM 44.1 °F - 39.9 °F 85% 30.27 in 10.0 mi Calm Calm - N/A   Clear